Time,TemperatureF,DewpointF,PressureIn,WindDirection,WindDirectionDegrees,WindSpeedMPH,WindSpeedGustMPH,Humidity,HourlyPrecipIn,Conditions,Clouds,dailyrainin,SolarRadiationWatts/m^2,SoftwareType,DateUTC
2013-06-28 00:02:00,74.0,45.0,30.05,ENE,58,8.0,-999.0,35,-99.99,,,-99.99,0.000000,,2013-06-28 06:02:00,
2013-06-28 00:12:00,76.0,47.0,30.05,East,82,20.0,-999.0,36,-99.99,,,-99.99,0.000000,,2013-06-28 06:12:00,
2013-06-28 00:22:00,76.0,47.0,30.05,East,82,20.0,-999.0,36,-99.99,,,-99.99,0.000000,,2013-06-28 06:22:00,
2013-06-28 00:33:00,75.0,48.0,30.06,ENE,63,15.0,-999.0,38,-99.99,,,-99.99,0.000000,,2013-06-28 06:33:00,
2013-06-28 00:42:00,74.0,47.0,30.06,ENE,63,17.0,-999.0,39,-99.99,,,-99.99,0.000000,,2013-06-28 06:42:00,
2013-06-28 00:52:00,74.0,47.0,30.06,ENE,63,17.0,-999.0,39,-99.99,,,-99.99,0.000000,,2013-06-28 06:52:00,
2013-06-28 01:01:00,74.0,48.0,30.05,ENE,74,22.0,-999.0,40,-99.99,,,-99.99,0.000000,,2013-06-28 07:01:00,
2013-06-28 01:11:00,74.0,49.0,30.05,ENE,76,21.0,-999.0,41,-99.99,,,-99.99,0.000000,,2013-06-28 07:11:00,
2013-06-28 01:22:00,74.0,49.0,30.05,ENE,76,21.0,-999.0,41,-99.99,,,-99.99,0.000000,,2013-06-28 07:22:00,
2013-06-28 01:33:00,73.0,49.0,30.04,ENE,78,19.0,-999.0,42,-99.99,,,-99.99,0.000000,,2013-06-28 07:33:00,
2013-06-28 01:42:00,72.0,48.0,30.05,ENE,65,16.0,-999.0,43,-99.99,,,-99.99,0.000000,,2013-06-28 07:42:00,
2013-06-28 01:52:00,72.0,48.0,30.05,ENE,65,16.0,-999.0,43,-99.99,,,-99.99,0.000000,,2013-06-28 07:52:00,
2013-06-28 02:01:00,72.0,49.0,30.05,ESE,107,17.0,-999.0,44,-99.99,,,-99.99,0.000000,,2013-06-28 08:01:00,
2013-06-28 02:11:00,71.0,49.0,30.05,East,95,19.0,-999.0,45,-99.99,,,-99.99,0.000000,,2013-06-28 08:11:00,
2013-06-28 02:21:00,71.0,49.0,30.05,East,95,19.0,-999.0,45,-99.99,,,-99.99,0.000000,,2013-06-28 08:21:00,
2013-06-28 02:33:00,71.0,49.0,30.06,East,100,17.0,-999.0,46,-99.99,,,-99.99,0.000000,,2013-06-28 08:33:00,
2013-06-28 02:43:00,70.0,48.0,30.06,East,82,9.0,-999.0,46,-99.99,,,-99.99,0.000000,,2013-06-28 08:43:00,
2013-06-28 02:52:00,70.0,48.0,30.06,East,82,9.0,-999.0,46,-99.99,,,-99.99,0.000000,,2013-06-28 08:52:00,
2013-06-28 03:02:00,69.0,48.0,30.06,ESE,105,6.0,-999.0,48,-99.99,,,-99.99,0.000000,,2013-06-28 09:02:00,
2013-06-28 03:11:00,69.0,49.0,30.07,East,83,5.0,-999.0,49,-99.99,,,-99.99,0.000000,,2013-06-28 09:11:00,
2013-06-28 03:22:00,69.0,49.0,30.07,East,83,5.0,-999.0,49,-99.99,,,-99.99,0.000000,,2013-06-28 09:22:00,
2013-06-28 03:33:00,68.0,49.0,30.07,East,82,2.0,-999.0,50,-99.99,,,-99.99,0.000000,,2013-06-28 09:33:00,
2013-06-28 03:42:00,68.0,50.0,30.07,ENE,70,4.0,-999.0,52,-99.99,,,-99.99,0.000000,,2013-06-28 09:42:00,
2013-06-28 03:52:00,68.0,50.0,30.07,ENE,70,4.0,-999.0,52,-99.99,,,-99.99,0.000000,,2013-06-28 09:52:00,
2013-06-28 04:02:00,67.0,49.0,30.07,NE,55,5.0,-999.0,53,-99.99,,,-99.99,0.000000,,2013-06-28 10:02:00,
2013-06-28 04:11:00,65.0,49.0,30.07,NE,47,2.0,-999.0,56,-99.99,,,-99.99,0.000000,,2013-06-28 10:11:00,
2013-06-28 04:22:00,65.0,49.0,30.07,NE,47,2.0,-999.0,56,-99.99,,,-99.99,0.000000,,2013-06-28 10:22:00,
2013-06-28 04:33:00,64.0,49.0,30.07,ENE,57,5.0,-999.0,58,-99.99,,,-99.99,0.000000,,2013-06-28 10:33:00,
2013-06-28 04:42:00,63.0,49.0,30.06,NE,49,5.0,-999.0,60,-99.99,,,-99.99,0.000000,,2013-06-28 10:42:00,
2013-06-28 04:52:00,63.0,49.0,30.06,NE,49,5.0,-999.0,60,-99.99,,,-99.99,0.000000,,2013-06-28 10:52:00,
2013-06-28 05:02:00,62.0,49.0,30.06,NE,56,6.0,-999.0,62,-99.99,,,-99.99,0.000000,,2013-06-28 11:02:00,
2013-06-28 05:11:00,62.0,50.0,30.07,NE,42,7.0,-999.0,64,-99.99,,,-99.99,0.000000,,2013-06-28 11:11:00,
2013-06-28 05:22:00,62.0,50.0,30.07,NE,42,7.0,-999.0,64,-99.99,,,-99.99,0.000000,,2013-06-28 11:22:00,
2013-06-28 05:34:00,60.0,49.0,30.07,NNE,25,0.0,-999.0,67,-99.99,,,-99.99,0.000000,,2013-06-28 11:34:00,
2013-06-28 05:43:00,60.0,49.0,30.08,North,10,1.0,-999.0,68,-99.99,,,-99.99,0.000000,,2013-06-28 11:43:00,
2013-06-28 05:53:00,60.0,49.0,30.08,North,10,1.0,-999.0,68,-99.99,,,-99.99,0.000000,,2013-06-28 11:53:00,
2013-06-28 06:01:00,61.0,50.0,30.08,NNE,19,5.0,-999.0,68,-99.99,,,-99.99,7.000000,,2013-06-28 12:01:00,
2013-06-28 06:12:00,61.0,50.0,30.09,North,5,0.0,-999.0,67,-99.99,,,-99.99,14.000000,,2013-06-28 12:12:00,
2013-06-28 06:22:00,61.0,50.0,30.09,North,5,0.0,-999.0,67,-99.99,,,-99.99,14.000000,,2013-06-28 12:22:00,
2013-06-28 06:33:00,62.0,51.0,30.09,NNW,346,1.0,-999.0,66,-99.99,,,-99.99,23.000000,,2013-06-28 12:33:00,
2013-06-28 06:43:00,62.0,51.0,30.09,North,355,3.0,-999.0,66,-99.99,,,-99.99,51.000000,,2013-06-28 12:43:00,
2013-06-28 06:52:00,62.0,51.0,30.09,North,355,3.0,-999.0,66,-99.99,,,-99.99,51.000000,,2013-06-28 12:52:00,
2013-06-28 07:01:00,63.0,53.0,30.09,NNW,334,2.0,-999.0,69,-99.99,,,-99.99,88.000000,,2013-06-28 13:01:00,
2013-06-28 07:11:00,63.0,53.0,30.09,NNW,334,2.0,-999.0,69,-99.99,,,-99.99,88.000000,,2013-06-28 13:11:00,
2013-06-28 07:23:00,63.0,52.0,30.09,NNW,340,2.0,-999.0,67,-99.99,,,-99.99,134.000000,,2013-06-28 13:23:00,
2013-06-28 07:33:00,65.0,52.0,30.09,North,351,5.0,-999.0,63,-99.99,,,-99.99,186.000000,,2013-06-28 13:33:00,
2013-06-28 07:43:00,65.0,52.0,30.09,North,351,5.0,-999.0,63,-99.99,,,-99.99,186.000000,,2013-06-28 13:43:00,
2013-06-28 07:53:00,66.0,52.0,30.09,North,9,5.0,-999.0,61,-99.99,,,-99.99,236.000000,,2013-06-28 13:53:00,
2013-06-28 08:01:00,68.0,53.0,30.09,NNE,18,5.0,-999.0,58,-99.99,,,-99.99,281.000000,,2013-06-28 14:01:00,
2013-06-28 08:12:00,68.0,53.0,30.09,NNE,18,5.0,-999.0,58,-99.99,,,-99.99,281.000000,,2013-06-28 14:12:00,
2013-06-28 08:22:00,69.0,52.0,30.09,North,355,3.0,-999.0,55,-99.99,,,-99.99,327.000000,,2013-06-28 14:22:00,
2013-06-28 08:33:00,70.0,52.0,30.09,NE,34,5.0,-999.0,53,-99.99,,,-99.99,371.000000,,2013-06-28 14:33:00,
2013-06-28 08:44:00,70.0,52.0,30.09,NE,34,5.0,-999.0,53,-99.99,,,-99.99,371.000000,,2013-06-28 14:44:00,
2013-06-28 08:53:00,71.0,51.0,30.09,North,355,6.0,-999.0,50,-99.99,,,-99.99,418.000000,,2013-06-28 14:53:00,
2013-06-28 09:02:00,72.0,52.0,30.09,NE,44,7.0,-999.0,50,-99.99,,,-99.99,462.000000,,2013-06-28 15:02:00,
2013-06-28 09:11:00,72.0,52.0,30.09,NE,44,7.0,-999.0,50,-99.99,,,-99.99,462.000000,,2013-06-28 15:11:00,
2013-06-28 09:24:00,72.0,52.0,30.09,NNE,22,8.0,-999.0,50,-99.99,,,-99.99,504.000000,,2013-06-28 15:24:00,
2013-06-28 09:34:00,73.0,52.0,30.09,NNE,33,6.0,-999.0,48,-99.99,,,-99.99,547.000000,,2013-06-28 15:34:00,
2013-06-28 09:43:00,73.0,52.0,30.09,NNE,33,6.0,-999.0,48,-99.99,,,-99.99,547.000000,,2013-06-28 15:43:00,
2013-06-28 09:52:00,74.0,51.0,30.09,North,11,5.0,-999.0,45,-99.99,,,-99.99,589.000000,,2013-06-28 15:52:00,
2013-06-28 10:01:00,75.0,51.0,30.08,North,5,6.0,-999.0,43,-99.99,,,-99.99,629.000000,,2013-06-28 16:01:00,
2013-06-28 10:11:00,75.0,51.0,30.08,North,5,6.0,-999.0,43,-99.99,,,-99.99,629.000000,,2013-06-28 16:11:00,
2013-06-28 10:24:00,76.0,52.0,30.08,NW,319,3.0,-999.0,43,-99.99,,,-99.99,668.000000,,2013-06-28 16:24:00,
2013-06-28 10:33:00,78.0,52.0,30.08,WNW,301,1.0,-999.0,40,-99.99,,,-99.99,703.000000,,2013-06-28 16:33:00,
2013-06-28 10:44:00,78.0,52.0,30.08,WNW,301,1.0,-999.0,40,-99.99,,,-99.99,703.000000,,2013-06-28 16:44:00,
2013-06-28 10:53:00,79.0,51.0,30.07,NNW,332,0.0,-999.0,38,-99.99,,,-99.99,738.000000,,2013-06-28 16:53:00,
2013-06-28 11:02:00,80.0,52.0,30.06,NNW,336,1.0,-999.0,38,-99.99,,,-99.99,773.000000,,2013-06-28 17:02:00,
2013-06-28 11:11:00,80.0,52.0,30.06,NNW,336,1.0,-999.0,38,-99.99,,,-99.99,773.000000,,2013-06-28 17:11:00,
2013-06-28 11:22:00,82.0,52.0,30.06,WNW,286,0.0,-999.0,35,-99.99,,,-99.99,800.000000,,2013-06-28 17:22:00,
2013-06-28 11:33:00,82.0,51.0,30.06,North,11,3.0,-999.0,34,-99.99,,,-99.99,209.000000,,2013-06-28 17:33:00,
2013-06-28 11:44:00,82.0,51.0,30.06,North,11,3.0,-999.0,34,-99.99,,,-99.99,209.000000,,2013-06-28 17:44:00,
2013-06-28 11:52:00,83.0,50.0,30.05,ENE,67,2.0,-999.0,32,-99.99,,,-99.99,42.000000,,2013-06-28 17:52:00,
2013-06-28 12:02:00,84.0,50.0,30.05,NW,319,3.0,-999.0,31,-99.99,,,-99.99,42.000000,,2013-06-28 18:02:00,
2013-06-28 12:11:00,84.0,50.0,30.05,NW,319,3.0,-999.0,31,-99.99,,,-99.99,42.000000,,2013-06-28 18:11:00,
2013-06-28 12:22:00,84.0,50.0,30.05,NW,319,3.0,-999.0,31,-99.99,,,-99.99,42.000000,,2013-06-28 18:22:00,
2013-06-28 12:33:00,85.0,50.0,30.04,North,5,4.0,-999.0,30,-99.99,,,-99.99,42.000000,,2013-06-28 18:33:00,
2013-06-28 12:43:00,85.0,50.0,30.04,North,5,4.0,-999.0,30,-99.99,,,-99.99,42.000000,,2013-06-28 18:43:00,
2013-06-28 12:52:00,86.0,49.0,30.03,NE,37,5.0,-999.0,28,-99.99,,,-99.99,42.000000,,2013-06-28 18:52:00,
2013-06-28 13:01:00,86.0,49.0,30.03,North,5,6.0,-999.0,28,-99.99,,,-99.99,42.000000,,2013-06-28 19:01:00,
2013-06-28 13:11:00,86.0,49.0,30.03,North,5,6.0,-999.0,28,-99.99,,,-99.99,42.000000,,2013-06-28 19:11:00,
2013-06-28 13:22:00,88.0,49.0,30.02,NNW,340,5.0,-999.0,26,-99.99,,,-99.99,88.000000,,2013-06-28 19:22:00,
2013-06-28 13:33:00,88.0,48.0,30.01,NW,319,6.0,-999.0,25,-99.99,,,-99.99,951.000000,,2013-06-28 19:33:00,
2013-06-28 13:43:00,88.0,48.0,30.01,NW,319,6.0,-999.0,25,-99.99,,,-99.99,951.000000,,2013-06-28 19:43:00,
2013-06-28 13:53:00,89.0,47.0,30.02,NE,50,5.0,-999.0,24,-99.99,,,-99.99,951.000000,,2013-06-28 19:53:00,
2013-06-28 14:11:00,88.0,46.0,30.01,ENE,58,4.0,-999.0,23,-99.99,,,-99.99,949.000000,,2013-06-28 20:11:00,
2013-06-28 14:22:00,90.0,47.0,30.01,North,5,2.0,-999.0,23,-99.99,,,-99.99,944.000000,,2013-06-28 20:22:00,
2013-06-28 14:33:00,89.0,45.0,30.00,NE,51,5.0,-999.0,22,-99.99,,,-99.99,933.000000,,2013-06-28 20:33:00,
2013-06-28 14:43:00,89.0,45.0,30.00,NE,51,5.0,-999.0,22,-99.99,,,-99.99,933.000000,,2013-06-28 20:43:00,
2013-06-28 14:52:00,90.0,46.0,30.00,NNE,22,5.0,-999.0,22,-99.99,,,-99.99,918.000000,,2013-06-28 20:52:00,
2013-06-28 15:01:00,90.0,47.0,29.99,NNE,28,9.0,-999.0,23,-99.99,,,-99.99,900.000000,,2013-06-28 21:01:00,
2013-06-28 15:11:00,90.0,47.0,29.99,NNE,28,9.0,-999.0,23,-99.99,,,-99.99,900.000000,,2013-06-28 21:11:00,
2013-06-28 15:23:00,90.0,43.0,29.99,North,355,5.0,-999.0,20,-99.99,,,-99.99,886.000000,,2013-06-28 21:23:00,
2013-06-28 15:34:00,91.0,44.0,29.98,North,355,7.0,-999.0,20,-99.99,,,-99.99,865.000000,,2013-06-28 21:34:00,
2013-06-28 15:43:00,91.0,44.0,29.98,North,355,7.0,-999.0,20,-99.99,,,-99.99,865.000000,,2013-06-28 21:43:00,
2013-06-28 15:53:00,93.0,43.0,29.98,NNW,328,5.0,-999.0,18,-99.99,,,-99.99,840.000000,,2013-06-28 21:53:00,
2013-06-28 16:01:00,93.0,45.0,29.98,NNE,26,3.0,-999.0,19,-99.99,,,-99.99,814.000000,,2013-06-28 22:01:00,
2013-06-28 16:11:00,93.0,45.0,29.98,NNE,26,3.0,-999.0,19,-99.99,,,-99.99,814.000000,,2013-06-28 22:11:00,
2013-06-28 16:22:00,91.0,47.0,29.97,ENE,65,8.0,-999.0,22,-99.99,,,-99.99,782.000000,,2013-06-28 22:22:00,
2013-06-28 16:34:00,91.0,46.0,29.97,North,5,11.0,-999.0,21,-99.99,,,-99.99,756.000000,,2013-06-28 22:34:00,
2013-06-28 16:43:00,91.0,46.0,29.97,North,5,11.0,-999.0,21,-99.99,,,-99.99,756.000000,,2013-06-28 22:43:00,
2013-06-28 16:52:00,92.0,46.0,29.96,NE,40,10.0,-999.0,21,-99.99,,,-99.99,724.000000,,2013-06-28 22:52:00,
2013-06-28 17:01:00,91.0,44.0,29.96,NNE,30,8.0,-999.0,20,-99.99,,,-99.99,686.000000,,2013-06-28 23:01:00,
2013-06-28 17:11:00,91.0,44.0,29.96,NNE,30,8.0,-999.0,20,-99.99,,,-99.99,686.000000,,2013-06-28 23:11:00,
2013-06-28 17:23:00,92.0,45.0,29.96,North,360,9.0,-999.0,20,-99.99,,,-99.99,645.000000,,2013-06-28 23:23:00,
2013-06-28 17:34:00,92.0,44.0,29.96,NNE,22,9.0,-999.0,19,-99.99,,,-99.99,610.000000,,2013-06-28 23:34:00,
2013-06-28 17:43:00,92.0,44.0,29.96,NNE,22,9.0,-999.0,19,-99.99,,,-99.99,610.000000,,2013-06-28 23:43:00,
2013-06-28 17:53:00,91.0,43.0,29.95,NE,51,11.0,-999.0,19,-99.99,,,-99.99,568.000000,,2013-06-28 23:53:00,
2013-06-28 18:02:00,91.0,46.0,29.95,NE,48,12.0,-999.0,21,-99.99,,,-99.99,522.000000,,2013-06-29 00:02:00,
2013-06-28 18:11:00,91.0,46.0,29.95,NE,48,12.0,-999.0,21,-99.99,,,-99.99,522.000000,,2013-06-29 00:11:00,
2013-06-28 18:22:00,91.0,46.0,29.95,NE,41,10.0,-999.0,21,-99.99,,,-99.99,480.000000,,2013-06-29 00:22:00,
2013-06-28 18:33:00,91.0,46.0,29.95,NE,41,10.0,-999.0,21,-99.99,,,-99.99,480.000000,,2013-06-29 00:33:00,
2013-06-28 18:42:00,91.0,46.0,29.95,NE,41,10.0,-999.0,21,-99.99,,,-99.99,480.000000,,2013-06-29 00:42:00,
2013-06-28 18:52:00,90.0,45.0,29.95,NNE,28,10.0,-999.0,21,-99.99,,,-99.99,434.000000,,2013-06-29 00:52:00,
2013-06-28 19:01:00,90.0,45.0,29.95,NNE,28,10.0,-999.0,21,-99.99,,,-99.99,434.000000,,2013-06-29 01:01:00,
2013-06-28 19:11:00,90.0,45.0,29.95,NNE,28,10.0,-999.0,21,-99.99,,,-99.99,434.000000,,2013-06-29 01:11:00,
2013-06-28 19:22:00,90.0,45.0,29.95,NNE,28,10.0,-999.0,21,-99.99,,,-99.99,434.000000,,2013-06-29 01:22:00,
2013-06-28 19:31:00,90.0,45.0,29.95,NNE,28,10.0,-999.0,21,-99.99,,,-99.99,434.000000,,2013-06-29 01:31:00,
2013-06-28 21:11:00,84.0,45.0,29.96,NNE,21,11.0,-999.0,26,-99.99,,,-99.99,65.000000,,2013-06-29 03:11:00,
2013-06-28 21:21:00,81.0,46.0,29.98,NNE,24,9.0,-999.0,29,-99.99,,,-99.99,0.000000,,2013-06-29 03:21:00,
2013-06-28 21:32:00,81.0,46.0,29.98,NNE,24,9.0,-999.0,29,-99.99,,,-99.99,0.000000,,2013-06-29 03:32:00,
2013-06-28 21:41:00,81.0,46.0,29.98,NNE,24,9.0,-999.0,29,-99.99,,,-99.99,0.000000,,2013-06-29 03:41:00,
2013-06-28 21:51:00,77.0,46.0,29.98,NNE,31,5.0,-999.0,33,-99.99,,,-99.99,0.000000,,2013-06-29 03:51:00,
2013-06-28 22:01:00,77.0,46.0,29.98,NNE,31,5.0,-999.0,33,-99.99,,,-99.99,0.000000,,2013-06-29 04:01:00,
2013-06-28 22:11:00,77.0,46.0,29.98,NNE,31,5.0,-999.0,33,-99.99,,,-99.99,0.000000,,2013-06-29 04:11:00,
2013-06-28 22:23:00,77.0,46.0,29.98,NNE,31,5.0,-999.0,33,-99.99,,,-99.99,0.000000,,2013-06-29 04:23:00,
2013-06-28 22:31:00,77.0,46.0,29.98,NNE,31,5.0,-999.0,33,-99.99,,,-99.99,0.000000,,2013-06-29 04:31:00,
2013-06-28 23:31:00,77.0,46.0,30.02,ENE,73,5.0,-999.0,33,-99.99,,,-99.99,0.000000,,2013-06-29 05:31:00,
2013-06-28 23:41:00,77.0,46.0,30.02,ENE,73,5.0,-999.0,33,-99.99,,,-99.99,0.000000,,2013-06-29 05:41:00,
2013-06-28 23:52:00,72.0,46.0,30.05,NE,49,1.0,-999.0,40,-99.99,,,-99.99,0.000000,,2013-06-29 05:52:00,